^^
Your Local Weather - Clay, NY Station Historical Data
Daily Summary for May 2, 2017 Units:  Metric    English   Both
« Previous Day
Next Day »
Daily Weekly Monthly Yearly Custom
  High: Low: Average:
Temperature: 15.4 °C 8.7 °C 11.8 °C
Dew Point: 14.5 °C 3.4 °C 7.4 °C
Humidity: 94% 62% 75%
Wind Speed: 12.9km/h 0km/h 3.7km/h
Wind Gust: 19.3km/h - -
Wind- - WSW
Pressure: 1005.3 hPa 998.2 hPa -
Precipitation: 7.11 mm    
Historical Graphs
 
 
Tabular Data for May 2, 2017
Time Temperature Dew Point Pressure Wind Wind Speed Wind Gust Humidity Rainfall Rate (Hourly) solar
00:02 15.1 °C 13.9 °C 998.2 hPa Calm     93% 0 mm 0 W/m2
00:08 15.1 °C 14.1 °C 998.2 hPa Calm     94% 0 mm 0 W/m2
00:14 15.1 °C 14.2 °C 998.2 hPa Calm     94% 0 mm 0 W/m2
00:20 15.1 °C 14.1 °C 998.2 hPa Calm     94% 0 mm 0 W/m2
00:26 15.1 °C 14.1 °C 998.2 hPa Calm     94% 0 mm 0 W/m2
00:32 15.1 °C 14.1 °C 998.2 hPa Calm     94% 0 mm 0 W/m2
00:38 14.9 °C 13.8 °C 998.2 hPa Calm     93% 0 mm 0 W/m2
00:44 14.9 °C 14 °C 998.5 hPa Calm     94% 0 mm 0 W/m2
00:50 15 °C 14.1 °C 998.5 hPa Calm     94% 0 mm 0 W/m2
00:56 15.1 °C 14.1 °C 998.9 hPa Calm     94% 0 mm 0 W/m2
01:02 15.2 °C 14.2 °C 999.2 hPa Calm   1.6 km/h 94% 0 mm 0 W/m2
01:08 15.3 °C 14.4 °C 999.2 hPa WNW 1.6 km/h 4.8 km/h 94% 21.34 mm 0 W/m2
01:14 15.4 °C 14.5 °C 999.2 hPa WSW 3.2 km/h 12.9 km/h 94% 12.95 mm 0 W/m2
01:20 15.2 °C 14.2 °C 999.2 hPa South 4.8 km/h 4.8 km/h 94% 2.54 mm 0 W/m2
01:26 15.1 °C 14.1 °C 999.9 hPa SSW 3.2 km/h 4.8 km/h 94% 1.27 mm 0 W/m2
01:32 14.9 °C 13.8 °C 999.5 hPa WSW 1.6 km/h 1.6 km/h 93% 0 mm 0 W/m2
01:38 14.9 °C 13.8 °C 999.9 hPa SW 3.2 km/h 11.3 km/h 93% 0 mm 0 W/m2
01:44 14.8 °C 13.7 °C 999.5 hPa SW 3.2 km/h 6.4 km/h 93% 0 mm 0 W/m2
01:50 14.7 °C 13.6 °C 999.5 hPa WSW 3.2 km/h 3.2 km/h 93% 0 mm 0 W/m2
01:56 14.4 °C 13.1 °C 999.9 hPa WNW 3.2 km/h 3.2 km/h 92% 0 mm 0 W/m2
02:02 14.2 °C 12.6 °C 999.9 hPa WSW 3.2 km/h 3.2 km/h 90% 0 mm 0 W/m2
02:08 14.1 °C 12.5 °C 999.9 hPa West 1.6 km/h 3.2 km/h 90% 0 mm 0 W/m2
02:12 14.1 °C 12.3 °C 999.9 hPa SW 1.6 km/h 3.2 km/h 89% 0 mm 0 W/m2
02:18 14 °C 12.1 °C 1000.2 hPa SW 3.2 km/h 4.8 km/h 88% 0 mm 0 W/m2
02:24 13.9 °C 11.9 °C 1000.2 hPa WSW 3.2 km/h 3.2 km/h 88% 0 mm 0 W/m2
02:30 13.8 °C 11.7 °C 1000.2 hPa WSW 1.6 km/h 1.6 km/h 87% 0 mm 0 W/m2
02:36 13.7 °C 11.4 °C 999.9 hPa SSW 3.2 km/h 4.8 km/h 86% 0 mm 0 W/m2
02:42 13.6 °C 11.3 °C 999.9 hPa WSW 1.6 km/h 1.6 km/h 86% 0 mm 0 W/m2
02:48 13.4 °C 10.9 °C 1000.2 hPa WSW 1.6 km/h 3.2 km/h 85% 0 mm 0 W/m2
02:54 13.4 °C 10.7 °C 1000.2 hPa West 3.2 km/h 4.8 km/h 84% 0 mm 0 W/m2
03:00 13.3 °C 10.5 °C 999.9 hPa West 3.2 km/h 3.2 km/h 83% 0 mm 0 W/m2
03:06 13.3 °C 10.3 °C 999.9 hPa West 1.6 km/h 3.2 km/h 82% 0 mm 0 W/m2
03:12 13.3 °C 10.1 °C 1000.2 hPa WSW 1.6 km/h 8 km/h 81% 0 mm 0 W/m2
03:18 13.2 °C 10 °C 1000.2 hPa WNW 1.6 km/h 8 km/h 81% 0 mm 0 W/m2
03:24 13.2 °C 10 °C 1000.2 hPa West 1.6 km/h 3.2 km/h 81% 0 mm 0 W/m2
03:30 13.1 °C 10.1 °C 1000.2 hPa WSW 1.6 km/h 1.6 km/h 82% 0 mm 0 W/m2
03:36 12.9 °C 9.9 °C 1000.2 hPa WSW 1.6 km/h 3.2 km/h 82% 0 mm 0 W/m2
03:42 12.9 °C 9.6 °C 1000.2 hPa WNW 1.6 km/h 8 km/h 80% 0 mm 0 W/m2
03:48 13 °C 9.6 °C 1000.2 hPa West 1.6 km/h 8 km/h 80% 0 mm 0 W/m2
03:54 12.9 °C 9.3 °C 1000.2 hPa WSW 1.6 km/h 3.2 km/h 79% 0 mm 0 W/m2
04:00 12.9 °C 9.2 °C 1000.2 hPa WSW 3.2 km/h 3.2 km/h 78% 0 mm 0 W/m2
04:06 12.9 °C 8.9 °C 1000.2 hPa WSW 3.2 km/h 6.4 km/h 77% 0 mm 0 W/m2
04:12 12.8 °C 9.1 °C 1000.2 hPa SW 3.2 km/h 3.2 km/h 78% 0 mm 0 W/m2
04:18 12.7 °C 9 °C 1000.6 hPa WSW 1.6 km/h 3.2 km/h 78% 0 mm 0 W/m2
04:24 12.7 °C 9 °C 1000.2 hPa West 1.6 km/h 1.6 km/h 78% 0 mm 0 W/m2
04:30 12.6 °C 8.9 °C 1000.6 hPa Calm   1.6 km/h 78% 0 mm 0 W/m2
04:36 12.6 °C 8.8 °C 1000.9 hPa West 1.6 km/h 4.8 km/h 78% 0 mm 0 W/m2
04:42 12.5 °C 8.9 °C 1000.9 hPa SSW 1.6 km/h 1.6 km/h 79% 0 mm 0 W/m2
04:48 12.4 °C 8.9 °C 1000.6 hPa SW 1.6 km/h 4.8 km/h 79% 0 mm 0 W/m2
04:54 12.5 °C 8.8 °C 1000.6 hPa WSW 3.2 km/h 3.2 km/h 78% 0 mm 0 W/m2
05:00 12.4 °C 8.7 °C 1000.9 hPa WSW 3.2 km/h 3.2 km/h 78% 0 mm 0 W/m2
05:06 12.4 °C 8.5 °C 1000.6 hPa WSW 3.2 km/h 3.2 km/h 77% 0 mm 0 W/m2
05:12 12.4 °C 8.7 °C 1000.6 hPa WSW 1.6 km/h 1.6 km/h 78% 0 mm 0 W/m2
05:18 12.3 °C 8.6 °C 1000.6 hPa WSW 1.6 km/h 1.6 km/h 78% 0 mm 0 W/m2
05:24 12.2 °C 8.5 °C 1000.9 hPa WSW 1.6 km/h 3.2 km/h 78% 0 mm 0 W/m2
05:30 12.2 °C 8.4 °C 1000.9 hPa SW 1.6 km/h 1.6 km/h 78% 0 mm 0 W/m2
05:36 12.2 °C 8.4 °C 1000.9 hPa SW 1.6 km/h 1.6 km/h 78% 0 mm 0 W/m2
05:42 12.2 °C 8.1 °C 1000.9 hPa WSW 1.6 km/h 3.2 km/h 76% 0 mm 0 W/m2
05:48 12.2 °C 8.1 °C 1000.9 hPa WSW 1.6 km/h 4.8 km/h 76% 0 mm 0 W/m2
05:54 12.1 °C 7.8 °C 1000.9 hPa Calm   1.6 km/h 75% 0 mm 0 W/m2
06:00 12.1 °C 7.9 °C 1000.9 hPa Calm     76% 0 mm 0 W/m2
06:06 12 °C 7.7 °C 1000.9 hPa SW 1.6 km/h 8 km/h 75% 0 mm 5 W/m2
06:12 11.9 °C 7.4 °C 1000.9 hPa WSW 1.6 km/h 1.6 km/h 74% 0 mm 12 W/m2
06:18 11.9 °C 7.3 °C 1000.9 hPa WSW 1.6 km/h 3.2 km/h 73% 0 mm 21 W/m2
06:24 11.9 °C 7.3 °C 1000.9 hPa WSW 1.6 km/h 3.2 km/h 73% 0 mm 25 W/m2
06:30 11.9 °C 7.3 °C 1000.9 hPa SW 1.6 km/h 1.6 km/h 73% 0 mm 33 W/m2
06:36 11.9 °C 6.8 °C 1000.9 hPa WNW 1.6 km/h 6.4 km/h 71% 0 mm 47 W/m2
06:42 12 °C 6.9 °C 1000.9 hPa WSW 1.6 km/h 1.6 km/h 71% 0 mm 39 W/m2
06:48 12 °C 6.9 °C 1000.9 hPa WSW 1.6 km/h 1.6 km/h 71% 0 mm 42 W/m2
06:54 12 °C 6.9 °C 1000.9 hPa SSW 1.6 km/h 6.4 km/h 71% 0 mm 44 W/m2
07:00 11.9 °C 7.1 °C 1000.9 hPa West 1.6 km/h 1.6 km/h 72% 0 mm 39 W/m2
07:06 11.9 °C 6.8 °C 1000.9 hPa Calm   1.6 km/h 71% 0 mm 44 W/m2
07:12 11.9 °C 7.1 °C 1000.9 hPa Calm   1.6 km/h 72% 0 mm 39 W/m2
07:18 11.9 °C 6.8 °C 1000.9 hPa West 1.6 km/h 1.6 km/h 71% 0 mm 44 W/m2
07:24 11.9 °C 6.8 °C 1000.9 hPa Calm   1.6 km/h 71% 0 mm 46 W/m2
07:30 12 °C 7.3 °C 1000.9 hPa Calm     73% 0 mm 40 W/m2
07:36 12.1 °C 7.3 °C 1000.6 hPa Calm     73% 0 mm 54 W/m2
07:42 12.1 °C 7.6 °C 1000.6 hPa Calm     74% 0 mm 60 W/m2
07:48 12.1 °C 8 °C 1000.6 hPa Calm     76% 0 mm 70 W/m2
07:54 12.1 °C 7.8 °C 1000.2 hPa Calm     75% 0 mm 91 W/m2
08:00 12.2 °C 7.9 °C 1000.6 hPa Calm     75% 0 mm 76 W/m2
08:06 12.2 °C 7.5 °C 1000.6 hPa Calm     73% 0 mm 84 W/m2
08:12 12.3 °C 7.4 °C 1000.6 hPa Calm   1.6 km/h 72% 0 mm 81 W/m2
08:18 12.3 °C 7.2 °C 1000.2 hPa Calm   4.8 km/h 71% 0 mm 134 W/m2
08:24 12.4 °C 7.3 °C 1000.2 hPa Calm   1.6 km/h 71% 0 mm 130 W/m2
08:30 12.5 °C 7.6 °C 1000.2 hPa Calm     72% 0 mm 104 W/m2
08:36 12.5 °C 7.4 °C 1000.2 hPa Calm   3.2 km/h 71% 0 mm 116 W/m2
08:42 12.5 °C 7.2 °C 1000.2 hPa Calm     70% 0 mm 102 W/m2
08:48 12.6 °C 7.2 °C 1000.2 hPa Calm   1.6 km/h 70% 0 mm 118 W/m2
08:54 12.6 °C 7.2 °C 1000.2 hPa Calm   1.6 km/h 70% 0 mm 130 W/m2
09:00 12.7 °C 7.1 °C 1000.2 hPa Calm     69% 0 mm 93 W/m2
09:06 12.6 °C 7.1 °C 1000.2 hPa Calm   1.6 km/h 69% 0 mm 74 W/m2
09:12 12.6 °C 7 °C 1000.2 hPa Calm     69% 0 mm 53 W/m2
09:18 12.4 °C 6.7 °C 1000.2 hPa Calm   1.6 km/h 68% 0 mm 60 W/m2
09:24 12.4 °C 6.7 °C 1000.2 hPa Calm     68% 0 mm 56 W/m2
09:30 12.4 °C 6.9 °C 1000.2 hPa Calm     69% 0 mm 114 W/m2
09:36 12.6 °C 7.2 °C 1000.2 hPa Calm     70% 0 mm 127 W/m2
09:42 12.6 °C 6.7 °C 999.9 hPa Calm     67% 0 mm 163 W/m2
09:48 12.8 °C 7 °C 999.9 hPa Calm     68% 0 mm 234 W/m2
09:54 12.9 °C 7.2 °C 999.9 hPa Calm   1.6 km/h 68% 0 mm 255 W/m2
10:00 13 °C 7 °C 999.9 hPa SW 1.6 km/h 1.6 km/h 67% 0 mm 204 W/m2
10:06 12.9 °C 6.7 °C 999.9 hPa SW 1.6 km/h 3.2 km/h 66% 0 mm 195 W/m2
10:12 13 °C 6.8 °C 999.9 hPa SW 1.6 km/h 1.6 km/h 66% 0 mm 141 W/m2
10:18 13.1 °C 7.1 °C 999.9 hPa Calm   1.6 km/h 67% 0 mm 156 W/m2
10:24 13.1 °C 6.8 °C 999.9 hPa SW 1.6 km/h 3.2 km/h 66% 0 mm 144 W/m2
10:30 13.1 °C 6.8 °C 999.5 hPa SW 1.6 km/h 1.6 km/h 66% 0 mm 171 W/m2
10:36 13.1 °C 7.1 °C 999.2 hPa Calm   1.6 km/h 67% 0 mm 188 W/m2
10:42 13.2 °C 7.2 °C 999.5 hPa Calm     67% 0 mm 213 W/m2
10:48 13.3 °C 7.3 °C 999.2 hPa SW 1.6 km/h 3.2 km/h 67% 0 mm 149 W/m2
10:54 13.3 °C 7.3 °C 999.2 hPa Calm   1.6 km/h 67% 0 mm 127 W/m2
11:00 13.2 °C 7 °C 999.2 hPa SW 1.6 km/h 3.2 km/h 66% 0 mm 118 W/m2
11:06 13.1 °C 6.9 °C 999.2 hPa South 1.6 km/h 3.2 km/h 66% 0 mm 102 W/m2
11:12 13.1 °C 7.1 °C 999.2 hPa South 1.6 km/h 3.2 km/h 67% 0 mm 95 W/m2
11:18 13.1 °C 7.3 °C 999.2 hPa South 3.2 km/h 3.2 km/h 68% 0 mm 142 W/m2
11:24 13.1 °C 7.3 °C 999.2 hPa South 1.6 km/h 1.6 km/h 68% 0 mm 172 W/m2
11:30 13.2 °C 7.4 °C 999.2 hPa SSE 1.6 km/h 1.6 km/h 68% 0 mm 139 W/m2
11:36 13.3 °C 7.8 °C 999.2 hPa SSE 1.6 km/h 1.6 km/h 69% 0 mm 132 W/m2
11:42 13.3 °C 7.7 °C 999.2 hPa SSE 1.6 km/h 3.2 km/h 69% 0 mm 151 W/m2
11:48 13.3 °C 7.9 °C 999.2 hPa SE 3.2 km/h 4.8 km/h 70% 0 mm 127 W/m2
11:54 13 °C 8.3 °C 999.2 hPa SSE 3.2 km/h 6.4 km/h 73% 0 mm 123 W/m2
12:00 12.4 °C 8.7 °C 999.2 hPa SE 4.8 km/h 6.4 km/h 78% 0 mm 163 W/m2
12:06 12.2 °C 8.9 °C 999.2 hPa SE 4.8 km/h 6.4 km/h 80% 0 mm 171 W/m2
12:12 12.2 °C 8.9 °C 998.9 hPa SSW 4.8 km/h 9.7 km/h 80% 0 mm 178 W/m2
12:18 12.3 °C 9.2 °C 998.9 hPa SSE 6.4 km/h 9.7 km/h 81% 0 mm 162 W/m2
12:24 12.4 °C 9.1 °C 998.9 hPa SSW 6.4 km/h 6.4 km/h 80% 0 mm 185 W/m2
12:30 12.5 °C 8.6 °C 999.2 hPa NW 3.2 km/h 4.8 km/h 77% 0 mm 63 W/m2
12:36 11.8 °C 7.9 °C 999.2 hPa NW 3.2 km/h 6.4 km/h 77% 0 mm 186 W/m2
12:42 11.2 °C 8.1 °C 999.2 hPa WSW 3.2 km/h 3.2 km/h 81% 0 mm 139 W/m2
12:48 10.9 °C 7.9 °C 999.2 hPa WSW 3.2 km/h 8 km/h 82% 0 mm 183 W/m2
12:54 10.9 °C 8.3 °C 999.2 hPa SW 3.2 km/h 3.2 km/h 84% 0 mm 186 W/m2
13:00 10.9 °C 8.3 °C 999.2 hPa WSW 3.2 km/h 6.4 km/h 84% 0 mm 200 W/m2
13:06 11.2 °C 8.6 °C 998.9 hPa SSW 4.8 km/h 9.7 km/h 84% 0 mm 243 W/m2
13:12 11.6 °C 8.8 °C 998.9 hPa SSE 4.8 km/h 6.4 km/h 83% 0 mm 214 W/m2
13:18 11.7 °C 8.6 °C 998.9 hPa SW 6.4 km/h 8 km/h 81% 0 mm 223 W/m2
13:24 11.9 °C 8.6 °C 998.5 hPa SW 6.4 km/h 8 km/h 80% 0 mm 248 W/m2
13:30 12 °C 8.1 °C 998.5 hPa South 6.4 km/h 12.9 km/h 77% 0 mm 229 W/m2
13:36 12.2 °C 8.1 °C 998.5 hPa SSE 6.4 km/h 12.9 km/h 76% 0 mm 271 W/m2
13:42 12.5 °C 8.2 °C 998.5 hPa SW 4.8 km/h 8 km/h 75% 0 mm 285 W/m2
13:48 12.7 °C 7.9 °C 998.5 hPa West 6.4 km/h 9.7 km/h 73% 0 mm 257 W/m2
13:54 12.8 °C 7.9 °C 998.2 hPa SSW 6.4 km/h 11.3 km/h 72% 0 mm 218 W/m2
14:00 12.9 °C 7.6 °C 998.2 hPa SW 6.4 km/h 9.7 km/h 70% 0 mm 279 W/m2
14:06 13.2 °C 8 °C 998.2 hPa WSW 6.4 km/h 14.5 km/h 71% 0 mm 345 W/m2
14:12 13.7 °C 7.7 °C 998.2 hPa WNW 6.4 km/h 12.9 km/h 67% 0 mm 577 W/m2
14:18 13.9 °C 7.6 °C 998.2 hPa SW 6.4 km/h 12.9 km/h 66% 0 mm 432 W/m2
14:24 14.2 °C 7.4 °C 998.5 hPa SSW 6.4 km/h 8 km/h 64% 0 mm 369 W/m2
14:30 14.3 °C 7.8 °C 998.5 hPa WSW 4.8 km/h 4.8 km/h 65% 0 mm 373 W/m2
14:36 14.4 °C 8.1 °C 998.5 hPa SW 4.8 km/h 6.4 km/h 66% 0 mm 318 W/m2
14:42 14.3 °C 7.6 °C 998.5 hPa SSW 4.8 km/h 12.9 km/h 64% 0 mm 107 W/m2
14:48 13.4 °C 7.9 °C 999.2 hPa SW 9.7 km/h 14.5 km/h 69% 0 mm 37 W/m2
14:54 11.1 °C 6.8 °C 999.9 hPa NW 12.9 km/h 12.9 km/h 75% 48.51 mm 79 W/m2
15:00 9.3 °C 6.2 °C 999.9 hPa NW 8 km/h 8 km/h 81% 3.3 mm 130 W/m2
15:06 9 °C 6.6 °C 999.5 hPa WNW 3.2 km/h 8 km/h 85% 2.29 mm 155 W/m2
15:12 9.2 °C 7.1 °C 999.5 hPa WNW 1.6 km/h 1.6 km/h 87% 1.02 mm 225 W/m2
15:18 9.4 °C 7.6 °C 999.9 hPa WNW 1.6 km/h 1.6 km/h 88% 0 mm 239 W/m2
15:24 9.6 °C 7.9 °C 1000.2 hPa West 1.6 km/h 3.2 km/h 89% 0 mm 156 W/m2
15:30 9.6 °C 7.9 °C 1000.6 hPa WSW 3.2 km/h 6.4 km/h 89% 0 mm 81 W/m2
15:36 9.6 °C 7.7 °C 1000.6 hPa WSW 4.8 km/h 6.4 km/h 88% 0 mm 114 W/m2
15:42 9.7 °C 7.8 °C 1000.6 hPa West 3.2 km/h 4.8 km/h 88% 0 mm 148 W/m2
15:48 9.8 °C 7.6 °C 1000.6 hPa West 4.8 km/h 4.8 km/h 86% 0 mm 185 W/m2
15:54 9.8 °C 7.2 °C 1000.9 hPa West 6.4 km/h 6.4 km/h 84% 0 mm 123 W/m2
16:00 9.8 °C 7.2 °C 1000.9 hPa WSW 4.8 km/h 4.8 km/h 84% 0 mm 172 W/m2
16:06 9.8 °C 7.1 °C 1000.9 hPa WNW 4.8 km/h 4.8 km/h 83% 0 mm 141 W/m2
16:12 9.9 °C 7.1 °C 1000.9 hPa West 3.2 km/h 6.4 km/h 83% 0 mm 120 W/m2
16:18 9.9 °C 7.1 °C 1000.9 hPa West 4.8 km/h 6.4 km/h 83% 0 mm 149 W/m2
16:24 9.9 °C 6.9 °C 1000.9 hPa WSW 4.8 km/h 8 km/h 82% 0 mm 186 W/m2
16:30 9.9 °C 6.8 °C 1001.2 hPa SW 6.4 km/h 6.4 km/h 81% 0 mm 171 W/m2
16:36 10 °C 6.9 °C 1001.6 hPa West 6.4 km/h 9.7 km/h 81% 0 mm 156 W/m2
16:42 9.9 °C 6.8 °C 1001.6 hPa WSW 6.4 km/h 6.4 km/h 81% 0 mm 62 W/m2
16:48 9.9 °C 7 °C 1001.6 hPa WNW 6.4 km/h 6.4 km/h 82% 0 mm 220 W/m2
16:54 10.1 °C 7 °C 1001.6 hPa WSW 4.8 km/h 9.7 km/h 81% 0 mm 244 W/m2
17:00 10.3 °C 6.7 °C 1001.6 hPa West 4.8 km/h 4.8 km/h 78% 0 mm 241 W/m2
17:06 10.4 °C 6.4 °C 1001.6 hPa West 4.8 km/h 4.8 km/h 76% 0 mm 188 W/m2
17:12 10.3 °C 5.1 °C 1001.9 hPa WSW 6.4 km/h 9.7 km/h 70% 0 mm 167 W/m2
17:18 10.2 °C 5.2 °C 1002.3 hPa WNW 8 km/h 9.7 km/h 71% 0 mm 137 W/m2
17:24 10.1 °C 5.5 °C 1001.9 hPa SW 4.8 km/h 8 km/h 73% 0 mm 120 W/m2
17:30 10.1 °C 5.4 °C 1002.3 hPa WSW 4.8 km/h 4.8 km/h 73% 0 mm 102 W/m2
17:36 10.1 °C 5.4 °C 1002.3 hPa WSW 4.8 km/h 4.8 km/h 73% 0 mm 130 W/m2
17:42 10.1 °C 5.3 °C 1002.3 hPa WSW 8 km/h 11.3 km/h 72% 0 mm 134 W/m2
17:48 10.1 °C 5.3 °C 1002.3 hPa WSW 8 km/h 16.1 km/h 72% 0 mm 146 W/m2
17:54 10.2 °C 5.4 °C 1002.3 hPa WSW 6.4 km/h 6.4 km/h 72% 0 mm 188 W/m2
18:00 10.3 °C 5.7 °C 1002.3 hPa NW 6.4 km/h 6.4 km/h 73% 0 mm 179 W/m2
18:06 10.4 °C 5.2 °C 1002.3 hPa WSW 4.8 km/h 6.4 km/h 70% 0 mm 128 W/m2
18:12 10.4 °C 4.8 °C 1002.3 hPa WNW 8 km/h 12.9 km/h 68% 0 mm 116 W/m2
18:18 10.6 °C 4.4 °C 1002.3 hPa NW 8 km/h 12.9 km/h 66% 0 mm 169 W/m2
18:24 10.6 °C 4.7 °C 1002.6 hPa WSW 6.4 km/h 8 km/h 67% 0 mm 102 W/m2
18:30 10.6 °C 4.5 °C 1002.6 hPa WSW 6.4 km/h 6.4 km/h 66% 0 mm 144 W/m2
18:36 10.7 °C 4.1 °C 1002.6 hPa West 6.4 km/h 8 km/h 64% 0 mm 100 W/m2
18:42 10.7 °C 3.9 °C 1002.6 hPa SW 8 km/h 14.5 km/h 63% 0 mm 74 W/m2
18:48 10.7 °C 4.1 °C 1002.6 hPa West 8 km/h 14.5 km/h 64% 0 mm 58 W/m2
18:54 10.6 °C 3.8 °C 1002.6 hPa WSW 6.4 km/h 8 km/h 63% 0 mm 46 W/m2
19:00 10.6 °C 3.6 °C 1002.9 hPa SW 8 km/h 8 km/h 62% 0 mm 46 W/m2
19:06 10.4 °C 3.4 °C 1002.9 hPa WNW 11.3 km/h 19.3 km/h 62% 0 mm 37 W/m2
19:12 10.4 °C 3.4 °C 1003.3 hPa WSW 9.7 km/h 11.3 km/h 62% 0 mm 23 W/m2
19:18 10.3 °C 3.8 °C 1003.3 hPa West 8 km/h 11.3 km/h 64% 0 mm 26 W/m2
19:24 10.2 °C 3.9 °C 1003.3 hPa WSW 4.8 km/h 6.4 km/h 65% 0 mm 16 W/m2
19:30 10.2 °C 3.7 °C 1003.3 hPa West 6.4 km/h 6.4 km/h 64% 0 mm 18 W/m2
19:36 10.1 °C 3.8 °C 1003.3 hPa WSW 8 km/h 8 km/h 65% 0 mm 9 W/m2
19:42 10.1 °C 3.8 °C 1003.3 hPa WSW 8 km/h 8 km/h 65% 0 mm 5 W/m2
19:50 10.1 °C 3.8 °C 1003.3 hPa West 4.8 km/h 16.1 km/h 65% 0 mm 0 W/m2
19:56 10 °C 3.7 °C 1003.3 hPa WSW 6.4 km/h 16.1 km/h 65% 0 mm 0 W/m2
20:02 10.1 °C 3.8 °C 1003.3 hPa WSW 8 km/h 16.1 km/h 65% 0 mm 0 W/m2
20:08 10.1 °C 3.8 °C 1003.6 hPa SSW 8 km/h 16.1 km/h 65% 0 mm 0 W/m2
20:14 10.1 °C 3.8 °C 1003.6 hPa West 6.4 km/h 8 km/h 65% 0 mm 0 W/m2
20:20 10.1 °C 3.6 °C 1003.6 hPa WSW 6.4 km/h 9.7 km/h 64% 0 mm 0 W/m2
20:26 10.1 °C 3.6 °C 1003.6 hPa SW 8 km/h 11.3 km/h 64% 0 mm 0 W/m2
20:32 10.2 °C 3.7 °C 1003.9 hPa SW 8 km/h 11.3 km/h 64% 0 mm 0 W/m2
20:38 10.2 °C 3.5 °C 1003.9 hPa West 9.7 km/h 14.5 km/h 63% 0 mm 0 W/m2
20:44 10.2 °C 3.4 °C 1003.9 hPa WSW 8 km/h 9.7 km/h 63% 0 mm 0 W/m2
20:50 10.1 °C 3.6 °C 1003.9 hPa West 6.4 km/h 6.4 km/h 64% 0 mm 0 W/m2
20:56 10.1 °C 3.6 °C 1003.9 hPa WSW 6.4 km/h 8 km/h 64% 0 mm 0 W/m2
21:02 10.1 °C 3.6 °C 1004.3 hPa West 8 km/h 8 km/h 64% 0 mm 0 W/m2
21:08 10.1 °C 3.8 °C 1003.9 hPa WSW 8 km/h 8 km/h 65% 0 mm 0 W/m2
21:14 10.2 °C 3.7 °C 1004.3 hPa SW 8 km/h 9.7 km/h 64% 0 mm 0 W/m2
21:20 10.1 °C 3.8 °C 1004.3 hPa WSW 6.4 km/h 6.4 km/h 65% 0 mm 0 W/m2
21:26 10.1 °C 3.8 °C 1004.3 hPa West 4.8 km/h 9.7 km/h 65% 0 mm 0 W/m2
21:32 10.1 °C 3.8 °C 1004.3 hPa SSW 6.4 km/h 9.7 km/h 65% 0 mm 0 W/m2
21:38 10.1 °C 3.8 °C 1004.3 hPa WNW 8 km/h 11.3 km/h 65% 0 mm 0 W/m2
21:44 10 °C 3.7 °C 1004.6 hPa West 6.4 km/h 9.7 km/h 65% 0 mm 0 W/m2
21:50 9.9 °C 3.9 °C 1004.6 hPa SW 8 km/h 8 km/h 66% 0 mm 0 W/m2
21:56 9.8 °C 4.2 °C 1004.6 hPa WSW 6.4 km/h 11.3 km/h 68% 0 mm 0 W/m2
22:02 9.8 °C 4.2 °C 1004.6 hPa WSW 6.4 km/h 9.7 km/h 68% 0 mm 0 W/m2
22:08 9.8 °C 4.2 °C 1004.6 hPa WSW 8 km/h 17.7 km/h 68% 0 mm 0 W/m2
22:14 9.7 °C 4.1 °C 1004.6 hPa West 8 km/h 16.1 km/h 68% 0 mm 0 W/m2
22:20 9.7 °C 4.1 °C 1005 hPa WSW 8 km/h 8 km/h 68% 0 mm 0 W/m2
22:26 9.8 °C 4.2 °C 1005 hPa WSW 8 km/h 16.1 km/h 68% 0 mm 0 W/m2
22:32 9.8 °C 3.8 °C 1005 hPa SSW 9.7 km/h 9.7 km/h 66% 0 mm 0 W/m2
22:38 9.8 °C 3.7 °C 1005 hPa WSW 8 km/h 14.5 km/h 66% 0 mm 0 W/m2
22:44 9.8 °C 3.5 °C 1005 hPa WSW 6.4 km/h 6.4 km/h 65% 0 mm 0 W/m2
22:50 9.8 °C 3.5 °C 1005 hPa West 6.4 km/h 6.4 km/h 65% 0 mm 0 W/m2
22:56 9.8 °C 3.5 °C 1005 hPa West 8 km/h 9.7 km/h 65% 0 mm 0 W/m2
23:03 9.7 °C 3.4 °C 1005.3 hPa West 4.8 km/h 12.9 km/h 65% 0 mm 0 W/m2
23:08 9.7 °C 3.7 °C 1005.3 hPa SW 6.4 km/h 12.9 km/h 66% 0 mm 0 W/m2
23:14 9.6 °C 3.8 °C 1005.3 hPa West 4.8 km/h 6.4 km/h 67% 0 mm 0 W/m2
23:20 9.4 °C 4 °C 1005.3 hPa West 4.8 km/h 4.8 km/h 69% 0 mm 0 W/m2
23:26 9.2 °C 4.2 °C 1005.3 hPa West 4.8 km/h 4.8 km/h 71% 0 mm 0 W/m2
23:32 9 °C 4.2 °C 1005.3 hPa West 4.8 km/h 6.4 km/h 72% 0 mm 0 W/m2
23:38 8.8 °C 4.4 °C 1005.3 hPa NW 3.2 km/h 6.4 km/h 74% 0 mm 0 W/m2
23:44 8.8 °C 4.4 °C 1005.3 hPa WSW 4.8 km/h 12.9 km/h 74% 0 mm 0 W/m2
23:50 8.7 °C 4.5 °C 1005.3 hPa WSW 4.8 km/h 4.8 km/h 75% 0 mm 0 W/m2
23:56 8.7 °C 4.5 °C 1005.3 hPa West 4.8 km/h 9.7 km/h 75% 0 mm 0 W/m2
Country Meadow, Clay, NY, USA
Compliments of Weather Underground - 2 mb